Location: Henry Coe State Park
(37.1875°N, 121.5503°W)
Time: 09:42:35
(UTC-07:00)

Daily predictions for brighter satellites

Satellite Brightness Start Highest point End
(mag) Time Altitude Azimuth Time Altitude Azimuth Time Altitude Azimuth
Cosmos 1464 Rocket 4.4 20:36:24 10° N 20:42:44 75° W 20:49:04 10° S
Cosmos 990 Rocket 4.0 20:38:24 10° S 20:43:30 66° ESE 20:48:43 10° NNE
Cosmos 1898 Rocket 3.9 20:38:52 10° SSW 20:44:08 74° WNW 20:49:29 10° NNE
Cosmos 1933 Rocket 3.5 20:42:17 10° S 20:46:35 82° E 20:50:58 10° N
Helios 1A 4.1 20:43:30 10° SE 20:47:03 28° ENE 20:50:39 10° NNE
Molniya-1 3.8 20:47:57 10° S 20:49:30 19° ESE 20:50:50 10° ENE
CENTAUR R/B 3.1 20:44:42 10° S 20:49:43 30° ESE 20:55:14 10° NE
COSMOS 2455 3.0 20:45:17 10° S 20:51:05 53° ESE 20:56:54 10° NE
OAO 2 Rocket 4.1 20:47:43 10° W 20:52:28 40° SSW 20:57:06 10° SE
Cosmos 1862 Rocket 3.6 20:48:16 10° N 20:52:46 77° E 20:57:14 10° S
Cosmos 2369 Rocket 2.5 20:48:28 10° S 20:53:45 43° ESE 20:59:06 10° NE
Shenzhou-11 Module 2.1 20:51:19 10° WNW 20:54:23 71° NNE 20:57:27 10° ESE
Resurs 01 Rocket 2.0 20:50:21 10° S 20:54:44 67° WSW 20:59:10 10° NNW
Milstar 3 4.4 20:42:03 10° SW 20:54:56 37° SSE 21:02:34 10° ESE
Lacrosse 5 rocket 1.1 20:53:26 10° SSW 20:56:54 53° SE 21:00:25 10° NE
Cosmos 1346 Rocket 3.1 20:56:38 10° N 21:00:29 48° E 21:04:22 10° SSE
YAOGAN 6 3.5 20:58:39 10° SE 21:02:01 34° ENE 21:05:22 10° N
COSMOS 2487 4.1 21:01:08 10° NW 21:04:22 34° WSW 21:07:35 10° SSW
Cosmos 1939 Rocket 3.0 21:01:54 10° SSE 21:05:59 62° ENE 21:10:03 10° N
Cosmos 1933 4.0 21:03:22 10° NNW 21:07:18 56° W 21:11:14 10° S
OE (NEXTSAT) 4.4 21:05:36 10° WNW 21:09:10 77° SSW 21:12:03 15° SE
SL-19 R/B 4.4 21:06:57 10° SSE 21:12:38 75° ENE 21:18:44 10° NNW
GPS 2-04 Rocket1 2.4 21:09:37 10° W 21:13:23 70° S 21:16:29 13° E
Okean 1-7 3.9 21:12:40 10° NNE 21:16:40 33° ENE 21:19:40 15° SE
ATLAS 5 CENTAUR R/B 3.7 21:12:47 10° N 21:17:47 27° NE 21:22:41 12° E
Cosmos 2346 Rocket 4.4 21:15:48 10° S 21:21:51 89° W 21:27:57 10° N
Meteor 1-29 3.1 21:18:53 10° NNE 21:22:20 53° E 21:25:43 10° S
Aureole 3 3.2 21:21:59 15° SSE 21:24:14 38° E 21:27:01 10° NNE
H-2A R/B 3.7 21:22:47 13° ESE 21:25:42 19° ENE 21:29:24 10° NNE
Aureole 1 4.3 21:22:46 10° SSW 21:25:45 77° WNW 21:29:04 10° NNE
Cosmos 1408 3.2 21:26:50 17° SSE 21:29:12 37° E 21:32:39 10° NNE
Cosmos 1703 Rocket 3.5 21:25:31 10° N 21:29:55 72° E 21:33:40 14° SSE
ARGOS 4.0 21:29:08 18° ESE 21:32:24 33° ENE 21:37:09 10° N
EO 1 Delta rocket 4.5 21:32:22 10° SSE 21:37:45 83° E 21:44:48 10° N
Cosmos 1782 3.1 21:34:44 10° N 21:38:36 46° E 21:40:31 25° SE
Cosmos 1733 Rocket 4.3 21:38:50 20° ESE 21:39:32 21° E 21:42:49 10° NE
Cosmos 1825 2.4 21:38:01 20° SSE 21:40:19 49° E 21:43:59 10° NNE
DNEPR-1 R/B 3.8 21:35:31 10° SSW 21:40:59 75° ESE 21:45:35 10° NE
Cosmos 1869 Rocket 3.6 21:42:06 10° S 21:46:25 78° W 21:50:47 10° N
ERS-1 Rocket 3.0 21:43:32 21° SSE 21:46:56 68° ENE 21:51:56 10° N
Helios 1B rocket 3.4 21:46:47 10° N 21:50:45 49° WNW 21:54:42 10° SSW
Cosmos 2084 3.1 21:48:55 10° NW 21:52:46 84° WSW 21:54:26 34° SSE
Cosmos 1862 3.7 21:55:13 36° SE 21:56:10 42° E 21:59:56 10° NNE
ISS -1.2 21:54:52 10° W 21:57:30 22° NNW 22:00:08 10° NNE
Cosmos 1048 Rocket 4.2 21:52:33 10° N 21:57:48 58° ENE 22:00:11 31° SE
Lacrosse 4 Rocket 2.4 21:56:40 10° N 22:00:50 36° ENE 22:02:08 30° E
OAO 3 Copernicus 4.3 22:00:01 10° WSW 22:04:57 57° SSE 22:06:59 33° ESE
Cosmos 2221 Rocket 3.9 22:00:42 10° NNW 22:05:06 65° W 22:07:52 22° S
MetOp-A 4.1 22:03:35 26° SSE 22:06:41 88° ENE 22:12:03 10° NNW
Tiangong 2 1.9 22:05:09 10° WNW 22:08:08 39° SSW 22:08:08 39° SSW
deb Kosmos-1763 4.0 22:06:52 10° NNW 22:10:38 72° ENE 22:11:15 57° SE
Terra 3.2 22:12:01 21° E 22:12:42 22° ENE 22:16:20 10° NNE
USA 215 3.4 22:09:49 28° ESE 22:13:29 67° NE 22:20:00 10° NW
Cosmos 1943 Rocket 2.5 22:09:50 10° SSW 22:15:23 67° WNW 22:20:56 10° NNE
Cosmos 1340 2.5 22:14:03 10° N 22:17:52 89° E 22:18:27 62° S
Cosmos 1674 Rocket 4.3 22:14:40 10° NNE 22:18:38 35° ENE 22:18:42 34° E
DMSP B5D2-2 4.4 22:13:50 10° NNE 22:18:46 42° E 22:19:27 40° ESE
SPOT 1/Viking Rocket 3.6 22:22:10 43° SE 22:23:40 63° ENE 22:28:49 10° N
SPOT 5 3.1 22:26:39 39° S 22:28:43 86° WSW 22:34:03 10° NNW
H-2A R/B 3.8 22:31:06 18° ENE 22:31:06 18° ENE 22:33:29 10° NNE
Cosmos 1606 4.0 22:29:18 10° NNW 22:32:45 35° W 22:33:58 27° SW
YAOGAN 11 4.2 22:31:48 53° S 22:32:51 80° WSW 22:37:24 10° NNW
Cosmos 1269 Rocket 4.1 22:28:52 10° NNW 22:34:08 70° WSW 22:35:49 43° S
Lacrosse 5 rocket 4.2 22:34:03 10° WNW 22:36:21 16° NW 22:38:41 10° N
Cosmos 2369 Rocket 4.4 22:33:19 10° WSW 22:37:56 25° WNW 22:42:35 10° N
Cosmos 1092 Rocket 4.0 22:36:34 45° SSE 22:38:14 61° E 22:44:17 10° NNE
Nadezhda 4 Rocket 3.9 22:35:52 32° S 22:38:58 90° E 22:45:10 10° N
CENTAUR R/B 3.7 22:34:19 10° WSW 22:40:02 43° NW 22:46:30 10° NNE
Okean 3 4.5 22:37:13 10° N 22:40:24 34° NE 22:40:24 34° NE
IGS 5A 4.4 22:42:12 36° NE 22:42:12 36° NE 22:45:33 10° N
Cosmos 1833 4.2 22:40:49 10° NNW 22:46:36 80° WSW 22:47:58 54° S
Cosmos 1908 Rocket 3.9 22:52:49 53° NE 22:52:49 53° NE 22:56:30 10° NNE
Cosmos 2344 3.9 22:45:01 10° SW 22:52:36 66° NW 23:00:59 10° NNE
GPS 2-04 Rocket1 4.5 22:49:29 10° W 22:50:56 21° WSW 22:50:56 21° WSW
Cosmos 2297 Rocket 4.3 22:55:50 10° NNE 22:58:34 14° NE 23:00:02 12° ENE
H-2A ROCKET BODY 3.8 22:56:41 10° WSW 22:58:45 24° SSW 22:58:45 24° SSW
ATLAS 5 CENTAUR R/B 2.7 22:56:49 10° NW 23:02:52 59° WSW 23:04:14 49° SSW
Cosmos 1867 3.7 22:57:38 10° NNW 23:03:01 60° ENE 23:03:23 58° ENE
H-2A R/B 2.7 23:03:26 43° SW 23:04:41 51° W 23:09:54 10° NNW
Cosmos 494 Rocket 3.8 23:04:14 10° NNW 23:09:26 86° ENE 23:09:26 86° ENE
Cosmos 1656 Rocket 4.4 23:10:32 22° SW 23:13:48 48° WNW 23:19:09 10° N
Meteor 1-20 Rocket 4.3 23:26:09 67° ENE 23:26:09 67° ENE 23:31:24 10° NNE
CZ-4B R/B 4.2 23:21:37 10° NNE 23:25:02 41° NE 23:25:02 41° NE
Sich 1 Rocket 4.3 23:27:16 50° NW 23:27:16 50° NW 23:30:59 10° N
Meteor 1-25 Rocket 4.2 23:31:48 86° NNE 23:31:48 86° NNE 23:37:31 10° N
Milstar 3 3.7 23:30:01 10° WSW 23:36:55 39° SW 23:36:55 39° SW
Lacrosse 4 Rocket 3.7 23:36:04 10° WNW 23:38:29 18° W 23:38:29 18° W
Cosmos 1655 Rocket 3.8 23:43:07 88° WSW 23:43:10 88° W 23:49:25 10° N
Cosmos 1975 Rocket 4.2 23:39:21 10° N 23:42:23 43° NNW 23:42:23 43° NNW
ATLAS CENTAUR R/B 3.3 23:48:33 26° NNW 23:48:33 26° NNW 23:50:46 10° NNE
CZ-2C R/B 4.0 23:43:13 10° NNE 23:46:01 27° NE 23:46:01 27° NE
Cosmos 2227 Rocket 3.1 23:43:27 10° N 23:48:20 40° NE 23:48:20 40° NE
Terra 3.2 23:50:55 33° WNW 23:50:55 33° WNW 23:54:33 10° NNW
